Location: Izdebno
(52.6670°N, 16.2170°E)
Time: 04:39:23
(UTC+02:00)

Transit 4A - Pass Details

Date: 29 February 2024
Orbit: 871 x 972 km, 66.8° (Epoch: 22 April)

Event Time Altitude Azimuth Distance (km) Brightness Sun altitude
Rises 00:11:35 0° 195° (SSW) 3,597 - -45.2°
Reaches altitude 10° 00:14:13 10° 189° (S) 2,642 - -45.2°
Maximum altitude 00:20:02 46° 118° (ESE) 1,213 - -45.1°
Exits shadow 00:25:40 10° 47° (NE) 2,567 10.6 -45.0°
Drops below altitude 10° 00:25:44 10° 47° (NE) 2,590 10.6 -45.0°
Sets 00:28:18 0° 42° (NE) 3,521 11.5 -45.0°
